Tracking 29892 objects as of 21-Nov-2024
HD Live streaming from Space Station
objects crossing your sky now

OSM-1 CICERO

Track OSM-1 CICERO now!
10-day predictions


NORAD ID: 46294
Int'l Code: 2020-061Y
Perigee: 441.6 km
Apogee: 444.4 km
Inclination: 97.3 °
Period: 93.3 minutes
Semi major axis: 6813 km
RCS: Unknown
Launch date: September 3, 2020
Source: Spain (SPN)
Launch site: FRENCH GUIANA (FRGUI)
Your satellite tracking list
Your tracking list is empty




NASA's NSSDC Master Catalog

Two Line Element Set (TLE):
1 46294U 20061Y   24326.08112806  .00039866  00000-0  88837-3 0  9996
2 46294  97.3313  31.6673 0002053  12.7411 347.3889 15.43490117233549
Source of the keplerian elements: AFSPC